Change the Weather History Date:

Tuesday, May 21, 2013

  Actual Average Record
Temperature  
Mean Temperature 73 °F -  
Max Temperature 82 °F 80 °F 91 °F (1998)
Min Temperature 64 °F 62 °F 46 °F (2007)
Cooling Degree Days 8    
Growing Degree Days 23 (Base 50)    
Moisture  
Dew Point 67 °F    
Average Humidity 92    
Maximum Humidity 100    
Minimum Humidity 74    
Precipitation  
Precipitation 0.00 in - - ()
Sea Level Pressure  
Sea Level Pressure 29.90 in    
Wind  
Wind Speed 6 mph (SSE)    
Max Wind Speed 16 mph    
Max Gust Speed -    
Visibility 8 miles    
Events Rain , Thunderstorm    
Averages and records for this station are not official NWS values.
T = Trace of Precipitation, MM = Missing Value Source: NWS Daily Summary

Daily Weather History Graph

Daily Weather History Graph

Search for Another Location

Airport or City:

Trip Planner

Search our weather history database for the weather conditions in past years. The results will help you decide how hot, cold, wet, or windy it might be!

Date:

Astronomy

May. 21, 2013 Rise Set
Actual Time 5:50 AM CDT 8:01 PM CDT
Civil Twilight 5:22 AM CDT 8:30 PM CDT
Nautical Twilight 4:47 AM CDT 9:05 PM CDT
Astronomical Twilight 4:09 AM CDT 9:43 PM CDT
Moon 4:22 PM CDT (5/21) 3:10 AM CDT (5/21)
Length of Visible Light 15h 08m
Length of Day
14h 10m
Waxing Gibbous, 84% of the Moon is Illuminated
May 21
Waxing Gibbous
May 24
Full
May 31
Last Quarter
Jun 8
New
Jun 16
First Quarter

Hourly Weather History & Observations

Time (CDT) Temp. Heat Index Dew Point Humidity Pressure Visibility Wind Dir Wind Speed Gust Speed Precip Events Conditions
12:55 AM 78.8 °F - 69.8 °F 74% 29.89 in 10.0 mi SSE 6.9 mph - N/A   Scattered Clouds
1:55 AM 78.8 °F - 69.8 °F 74% 29.88 in 10.0 mi SSE 9.2 mph - N/A   Scattered Clouds
2:55 AM 68.0 °F - 64.4 °F 88% 29.92 in 6.0 mi WNW 10.4 mph - N/A   Mostly Cloudy
3:15 AM 66.2 °F - 64.4 °F 94% 29.91 in 10.0 mi Calm Calm - N/A   Mostly Cloudy
3:35 AM 66.2 °F - 64.4 °F 94% 29.92 in 10.0 mi ESE 4.6 mph - N/A   Partly Cloudy
3:55 AM 66.2 °F - 64.4 °F 94% 29.89 in 10.0 mi Calm Calm - N/A   Clear
4:15 AM 66.2 °F - 64.4 °F 94% 29.89 in 10.0 mi East 3.5 mph - N/A   Clear
4:35 AM 66.2 °F - 64.4 °F 94% 29.89 in 10.0 mi Variable 3.5 mph - N/A   Partly Cloudy
4:55 AM 66.2 °F - 64.4 °F 94% 29.93 in 10.0 mi Variable 3.5 mph - N/A   Clear
5:15 AM 66.2 °F - 64.4 °F 94% 29.93 in 10.0 mi SE 4.6 mph - N/A   Partly Cloudy
5:35 AM 66.2 °F - 64.4 °F 94% 29.94 in 10.0 mi SE 4.6 mph - N/A   Mostly Cloudy
5:55 AM 66.2 °F - 64.4 °F 94% 29.94 in 10.0 mi Calm Calm - N/A   Overcast
6:55 AM 66.2 °F - 66.2 °F 100% 29.94 in 10.0 mi Variable 3.5 mph - N/A   Overcast
7:55 AM 66.2 °F - 66.2 °F 100% 29.95 in 10.0 mi Variable 3.5 mph - N/A Rain Light Rain
8:55 AM 68.0 °F - 66.2 °F 94% 30.03 in 5.0 mi West 6.9 mph - N/A Rain , Thunderstorm Thunderstorms and Rain
9:55 AM 64.4 °F - 64.4 °F 100% 29.99 in 2.0 mi East 5.8 mph - N/A Rain , Thunderstorm Thunderstorms and Rain
10:30 AM 64.4 °F - 64.4 °F 100% 29.94 in 7.0 mi Variable 3.5 mph - N/A Rain Light Rain
10:55 AM 66.2 °F - 66.2 °F 100% 29.94 in 7.0 mi ESE 6.9 mph - N/A Rain Light Rain
11:55 AM 69.8 °F - 68.0 °F 94% 29.93 in 6.0 mi SSE 4.6 mph - N/A   Overcast
12:55 PM 75.2 °F - 71.6 °F 89% 29.90 in 10.0 mi SE 8.1 mph - N/A   Mostly Cloudy
1:55 PM 80.6 °F 85.4 °F 73.4 °F 79% 29.87 in 10.0 mi SE 8.1 mph - N/A   Mostly Cloudy
2:55 PM 82.4 °F 88.2 °F 73.4 °F 74% 29.83 in 10.0 mi SE 11.5 mph - N/A   Scattered Clouds
3:55 PM 78.8 °F - 71.6 °F 78% 29.81 in 10.0 mi Variable 5.8 mph - N/A   Mostly Cloudy
4:55 PM 69.8 °F - 66.2 °F 88% 29.84 in 2.0 mi WNW 16.1 mph - N/A Rain , Thunderstorm Thunderstorms and Rain
5:55 PM 68.0 °F - 66.2 °F 94% 29.84 in 5.0 mi East 3.5 mph - N/A Rain , Thunderstorm Light Thunderstorms and Rain
6:55 PM 68.0 °F - 68.0 °F 100% 29.81 in 5.0 mi Variable 5.8 mph - N/A Rain Light Rain
7:55 PM 68.0 °F - 68.0 °F 100% 29.81 in 10.0 mi Calm Calm - N/A Rain Light Rain
8:55 PM 68.0 °F - 66.2 °F 94% 29.80 in 10.0 mi Calm Calm - N/A Rain Light Rain
9:55 PM 69.8 °F - 68.0 °F 94% 29.88 in 2.0 mi WNW 10.4 mph - N/A Rain Light Rain
10:55 PM 66.2 °F - 66.2 °F 100% 29.91 in 3.0 mi WSW 4.6 mph - N/A Rain Light Rain
11:55 PM 64.4 °F - 64.4 °F 100% 29.91 in 3.0 mi SSW 3.5 mph - N/A Rain Light Rain